[[{"header":{"parameterUnit":"m.s-1","parameterCategory":1,"la1":30.2991,"la2":30.254,"lo1":-89.0895,"lo2":-89.0444,"dy":0.0017,"dx":0.0017,"nx":28,"ny":28,"refTime":"2025-07-11T21:00:00:Z","depth":0,"parameterNumber":2,"parameterNumberName":"U-component_of_WINDS"},"data":[0,0,0,0,0,0,0,0,0,0,0,0,0,0,0,0,0,0,0,0,0,0,0,0,0,0,0,0,0,0,0,0,0,0,0,0,0,0,0,0,0,0,0,0,0,0,0,0,0,0,0,0,0,0,0,0,0,0,2.0527,2.0528,0,2.0659,2.0661,2.0662,2.0669,2.0667,2.0665,2.0664,2.08,2.0805,2.081,0,0,0,0,0,0,0,0,0,0,0,0,0,2.0277,2.0281,2.0526,2.0528,2.053,2.0659,2.0661,2.0663,2.0669,2.0667,2.0665,2.0663,2.0799,2.0805,2.0811,0,0,0,0,0,0,0,0,0,0,0,0,0,2.0395,2.0283,2.0526,2.0548,2.0552,2.0659,2.0661,2.0663,2.0669,2.0667,2.0665,2.0662,2.0797,2.0804,2.0811,2.0905,0,0,2.0835,2.0838,0,0,0,0,0,0,0,0,2.0388,2.0404,2.0543,2.0547,2.0551,2.0645,2.0623,2.0744,2.067,2.0625,2.0664,2.0661,2.075,2.0762,2.0792,2.0911,2.0917,2.0835,2.084,2.0843,2.0845,0,0,0,0,0,0,0,2.038,2.0398,2.0579,2.0545,2.055,2.0551,2.0565,2.0646,2.0699,2.0628,2.0629,2.0645,2.0752,2.0784,2.0795,2.0919,2.0835,2.0842,2.0847,2.085,2.112,2.1123,0,0,0,0,0,0,2.0368,2.0392,2.0575,2.0583,2.0462,2.0558,2.0574,2.0617,2.0698,2.0708,2.0647,2.0645,2.0773,2.0786,2.08,2.0914,2.0843,2.085,2.0855,2.1118,2.1121,2.1124,0,0,0,0,0,0,2.0362,2.0384,2.0569,2.0487,2.0511,2.0564,2.0613,2.0621,2.0653,2.0712,2.0721,2.067,2.0771,2.0789,2.0878,2.0919,2.0854,2.0861,2.1115,2.1119,2.1122,2.1143,0,0,0,0,0,0,2.0355,2.0382,2.0419,2.0488,2.0516,2.0646,2.0616,2.0625,2.0666,2.0665,2.0736,2.0746,2.0771,2.0867,2.0886,2.0928,2.0867,2.1111,2.1117,2.1121,2.1139,2.1147,2.1154,0,0,0,0,0,2.0346,2.042,2.042,2.0443,2.0563,2.0649,2.0664,2.0691,2.067,2.0707,2.0744,2.0744,2.0911,2.0876,2.0897,2.0942,2.1109,2.1115,2.1121,2.1135,2.1145,2.1154,0,0,0,0,0,0,2.0354,2.0429,2.0431,2.0529,2.0582,2.0649,2.0697,2.0701,2.0762,2.0758,2.0789,2.0805,2.0893,2.0927,2.0886,2.1036,2.1007,2.1018,2.1011,2.1021,2.1029,2.1019,2.0873,0,0,0,0,0,2.0367,2.0431,2.0493,2.0574,2.06,2.0644,2.0682,2.0698,2.0755,2.0777,2.0821,2.0876,2.094,2.0983,2.1045,2.1143,2.1158,2.1184,2.1192,2.1198,2.1207,2.126,2.1272,2.1143,2.1143,2.1143,0,0,2.0395,2.0444,2.0482,2.0576,2.0619,2.0684,2.0663,2.0733,2.0781,2.0788,2.0875,2.0909,2.0971,2.1065,2.1108,2.1096,2.1245,2.1205,2.121,2.1216,2.1267,2.1279,2.129,2.1147,2.1147,2.1146,0,0,2.0479,2.0522,2.0594,2.0637,2.0702,2.073,2.0747,2.0813,2.0836,2.0923,2.0929,2.0987,2.1098,2.1142,2.1179,2.1277,2.1279,2.1296,2.1336,2.1387,2.1397,2.1406,2.1441,2.1453,2.1305,2.1305,2.1305,0,2.0505,2.0603,2.063,2.07,2.074,2.0748,2.082,2.0861,2.0943,2.0971,2.0955,2.1093,2.1136,2.1239,2.1263,2.1293,2.1312,2.1289,2.1394,2.1403,2.1412,2.1445,2.1458,2.1306,2.1306,2.1306,2.1306,0,2.0632,2.07,2.075,2.0828,2.0874,2.0945,2.0981,2.1024,2.1035,2.1065,2.1153,2.1204,2.1277,2.1303,2.1315,2.1407,2.1397,2.1387,2.1359,2.1425,2.1457,2.147,2.1309,2.1308,2.1308,2.1307,0,0,2.0727,2.0817,2.0835,2.087,2.0941,2.0994,2.1064,2.1134,2.1171,2.1226,2.1285,2.1378,2.1368,2.141,2.1427,2.1472,2.1545,2.1456,2.1458,2.1471,2.1649,2.1656,2.167,2.1546,2.1548,2.155,2.1643,0,2.0818,2.0943,2.0968,2.1076,2.1138,2.1146,2.1206,2.1256,2.1285,2.1341,2.1373,2.1438,2.1421,2.1446,2.1491,2.1526,2.1581,2.152,2.1601,2.1603,2.1585,2.1687,2.1695,2.178,2.1656,2.1658,2.1659,0,2.0943,2.1,2.1114,2.1176,2.1203,2.1257,2.1322,2.1377,2.1432,2.145,2.1496,2.1507,2.1579,2.1546,2.1645,2.1603,2.1637,2.166,2.1664,2.1673,2.1636,2.1698,2.1808,2.1821,2.1679,2.1678,2.1676,0,2.0999,2.1106,2.1187,2.1217,2.1291,2.1328,2.1361,2.1414,2.1454,2.1511,2.1538,2.1602,2.1638,2.1687,2.1715,2.1689,2.1812,2.1782,2.1828,2.1828,2.1855,2.1853,2.1971,2.1876,2.1876,2.1876,2.1876,0,2.1099,2.1169,2.1214,2.1264,2.1341,2.1368,2.1444,2.1476,2.1523,2.1579,2.1589,2.1641,2.1675,2.1731,2.1754,2.1832,2.1848,2.1864,2.1869,2.1863,2.1861,2.1886,2.1881,2.1879,2.1878,2.1878,2.1877,0,2.1176,2.121,2.1299,2.136,2.1377,2.1432,2.1484,2.1532,2.156,2.1631,2.1649,2.1693,2.176,2.1792,2.1876,2.1891,2.1979,2.198,2.196,2.1962,2.2006,2.2001,2.2146,2.2166,2.2057,2.2058,2.2059,0,2.1238,2.1292,2.1358,2.1396,2.1429,2.1491,2.1531,2.1559,2.16,2.1667,2.1707,2.1774,2.183,2.1936,2.1976,2.2039,2.2042,2.2088,2.2052,2.2043,2.2042,2.2039,2.2044,2.2095,2.2096,2.2097,2.2097,0,2.1344,2.1358,2.1416,2.1479,2.1527,2.1578,2.1629,2.1659,2.1694,2.1741,2.1809,2.1852,2.1936,2.2002,2.2068,2.2101,2.2105,2.2108,2.2122,2.2117,2.2103,2.211,2.1978,2.2105,2.2104,2.2104,2.2103,2.2103,2.1416,2.1463,2.1517,2.1581,2.1621,2.1667,2.1716,2.1749,2.1806,2.1877,2.1889,2.1961,2.2014,2.2102,2.2137,2.2193,2.2183,2.2203,2.2209,2.2213,2.2215,2.2093,2.2206,2.2205,2.2205,2.2205,2.2205,0,2.1522,2.1557,2.1615,2.1685,2.1734,2.1733,2.1788,2.1829,2.1893,2.1941,2.1995,2.2072,2.2136,2.2179,2.2244,2.2281,2.2284,2.2297,2.2294,2.2302,2.2221,2.2203,2.2293,2.2293,2.2293,2.2293,2.2293,2.2293,2.1584,2.1663,2.1682,2.1781,2.1814,2.1885,2.1916,2.1959,2.1997,2.2083,2.2136,2.2163,2.2209,2.2277,2.2335,2.2346,2.2369,2.2382,2.2393,2.2317,2.2308,2.2299,2.2281,2.2387,2.2387,2.2468,2.2469,2.247]},{"header":{"parameterUnit":"m.s-1","parameterCategory":1,"la1":30.2991,"la2":30.254,"lo1":-89.0895,"lo2":-89.0444,"dy":0.0017,"dx":0.0017,"nx":28,"ny":28,"refTime":"2025-07-11T21:00:00:Z","depth":0,"parameterNumber":3,"parameterNumberName":"V-component_of_WINDS"},"data":[0,0,0,0,0,0,0,0,0,0,0,0,0,0,0,0,0,0,0,0,0,0,0,0,0,0,0,0,0,0,0,0,0,0,0,0,0,0,0,0,0,0,0,0,0,0,0,0,0,0,0,0,0,0,0,0,0,0,3.9406,3.9405,0,3.9262,3.9261,3.9259,3.9156,3.9155,3.9154,3.9154,3.9002,3.8999,3.8996,0,0,0,0,0,0,0,0,0,0,0,0,0,3.9588,3.9586,3.9407,3.9405,3.9403,3.9263,3.9261,3.9259,3.9156,3.9155,3.9154,3.9153,3.9003,3.9,3.8996,0,0,0,0,0,0,0,0,0,0,0,0,0,3.9483,3.9585,3.9407,3.9335,3.9327,3.9263,3.926,3.9258,3.9156,3.9155,3.9154,3.9153,3.9005,3.9,3.8995,3.899,0,0,3.898,3.8978,0,0,0,0,0,0,0,0,3.9489,3.9477,3.9347,3.934,3.9331,3.9226,3.9269,3.9168,3.9157,3.9221,3.9154,3.9152,3.9078,3.9067,3.9042,3.8983,3.8976,3.898,3.8977,3.8975,3.8973,0,0,0,0,0,0,0,3.9497,3.9482,3.9349,3.9346,3.9336,3.9308,3.9292,3.9249,3.9158,3.9215,3.9208,3.9192,3.9073,3.9047,3.9038,3.8974,3.898,3.8976,3.8973,3.8971,3.89,3.8901,0,0,0,0,0,0,3.9516,3.9489,3.9354,3.9345,3.9409,3.9306,3.9288,3.9261,3.9158,3.9141,3.9193,3.9188,3.9056,3.9044,3.9032,3.9017,3.8975,3.897,3.8967,3.8899,3.89,3.8901,0,0,0,0,0,0,3.952,3.9505,3.936,3.9415,3.9394,3.9304,3.9275,3.9259,3.9233,3.9142,3.9124,3.9184,3.9055,3.9039,3.9001,3.901,3.8968,3.8963,3.8897,3.8899,3.89,3.8988,0,0,0,0,0,0,3.9526,3.9507,3.9505,3.9416,3.9392,3.9332,3.9275,3.9257,3.9225,3.9217,3.9128,3.9112,3.9052,3.9008,3.8996,3.9003,3.896,3.8896,3.8898,3.89,3.8984,3.8993,3.9,0,0,0,0,0,3.9533,3.9535,3.9506,3.949,3.9388,3.9333,3.9319,3.9251,3.9227,3.9223,3.9164,3.9115,3.9012,3.9005,3.899,3.8996,3.8895,3.8898,3.89,3.898,3.8991,3.9,0,0,0,0,0,0,3.9628,3.9522,3.9488,3.9462,3.9408,3.9316,3.931,3.9265,3.9215,3.9209,3.9125,3.9106,3.9076,3.9032,3.9027,3.8984,3.8947,3.8947,3.9014,3.9023,3.9031,3.9041,3.8956,0,0,0,0,0,3.9646,3.9612,3.9521,3.9507,3.9481,3.9401,3.9374,3.9326,3.9266,3.9242,3.918,3.9122,3.9075,3.9047,3.9,3.8978,3.8955,3.8974,3.8982,3.8989,3.8989,3.8971,3.8978,3.8909,3.8909,3.8909,0,0,3.9683,3.9621,3.9604,3.9524,3.9476,3.9441,3.9382,3.9347,3.9319,3.9236,3.9196,3.9148,3.9078,3.9047,3.903,3.9009,3.9003,3.8992,3.8998,3.8994,3.8974,3.8981,3.8987,3.891,3.891,3.891,0,0,3.9731,3.9682,3.9663,3.9617,3.9545,3.9491,3.9487,3.9401,3.9367,3.9326,3.9262,3.9227,3.915,3.9102,3.9067,3.9096,3.9049,3.9083,3.9124,3.9108,3.9114,3.9118,3.9126,3.913,3.9084,3.9084,3.9084,0,3.9785,3.9731,3.966,3.9628,3.9594,3.9518,3.9497,3.9455,3.9371,3.9349,3.9327,3.9228,3.9175,3.9131,3.9138,3.9113,3.9104,3.9092,3.9119,3.9122,3.9125,3.9132,3.9136,3.9088,3.9088,3.9087,3.9087,0,3.98,3.9763,3.9756,3.9678,3.9643,3.9618,3.9541,3.9514,3.9469,3.9417,3.9375,3.9309,3.9246,3.9232,3.9188,3.9181,3.917,3.9135,3.9096,3.9138,3.9143,3.9145,3.9095,3.9093,3.9092,3.9091,0,0,3.9904,3.9786,3.9785,3.9747,3.9662,3.9631,3.9601,3.9541,3.9518,3.9463,3.9434,3.9371,3.9337,3.9298,3.9247,3.9234,3.9258,3.9199,3.9196,3.9211,3.9244,3.927,3.9274,3.9227,3.9227,3.9227,3.9249,0,3.9937,3.9881,3.9816,3.9781,3.9745,3.9671,3.9645,3.9589,3.9539,3.95,3.9444,3.94,3.936,3.9336,3.9319,3.9259,3.9263,3.9257,3.9197,3.9196,3.9216,3.9277,3.9304,3.9328,3.9251,3.9251,3.9251,0,3.9969,3.9918,3.988,3.9797,3.9779,3.9757,3.9695,3.9659,3.9593,3.9557,3.9514,3.946,3.9422,3.9389,3.9335,3.9332,3.9304,3.9271,3.927,3.926,3.9225,3.9267,3.9334,3.9338,3.9254,3.9254,3.9254,0,4.0046,3.9968,3.9934,3.9905,3.9807,3.9793,3.9751,3.9684,3.9652,3.9597,3.9575,3.9517,3.9485,3.944,3.9371,3.9353,3.9324,3.9285,3.9291,3.9293,3.9287,3.9288,3.9349,3.9272,3.9272,3.9272,3.9272,0,4.009,4.0069,3.9968,3.9947,3.9921,3.9845,3.9821,3.9772,3.9713,3.968,3.9613,3.9584,3.9495,3.9454,3.94,3.9362,3.9349,3.9317,3.9303,3.9322,3.9326,3.9302,3.9297,3.9273,3.9273,3.9273,3.9273,0,4.0171,4.0103,4.0061,3.9972,3.9949,3.9934,3.9856,3.9832,3.9779,3.9738,3.9724,3.964,3.9588,3.9515,3.9441,3.9404,3.9374,3.9352,3.9396,3.9387,3.9397,3.9396,3.9442,3.9444,3.9369,3.937,3.9371,0,4.0203,4.0185,4.0094,4.0068,4.0029,3.9987,3.9953,3.9878,3.9845,3.9768,3.9753,3.9696,3.9647,3.9568,3.9498,3.9441,3.9416,3.9436,3.9406,3.9426,3.9413,3.9415,3.9411,3.9442,3.9444,3.9445,3.9445,0,4.0266,4.0232,4.0187,4.0129,4.0091,4.0042,3.9989,3.9971,3.9884,3.985,3.9797,3.9759,3.9683,3.9627,3.956,3.9515,3.9465,3.9456,3.9453,3.9472,3.9498,3.9482,3.9414,3.9454,3.9453,3.9453,3.9452,3.9452,4.0321,4.0301,4.0234,4.0185,4.0137,4.0089,4.0062,4.0005,3.996,3.9893,3.9851,3.98,3.9732,3.9637,3.9594,3.9552,3.9531,3.9529,3.9528,3.9528,3.9534,3.9507,3.9539,3.9539,3.9539,3.9538,3.9538,0,4.0378,4.0331,4.0287,4.0216,4.0177,4.0135,4.0074,4.0044,4.0,3.9942,3.9894,3.9832,3.9777,3.9704,3.9643,3.9623,3.9598,3.9609,3.9609,3.9599,3.9556,3.9563,3.963,3.963,3.963,3.963,3.963,3.963,4.0404,4.0367,4.0326,4.0264,4.0216,4.0166,4.0135,4.0089,4.0042,3.9977,3.9931,3.9884,3.9819,3.9752,3.9699,3.9679,3.9659,3.9676,3.9649,3.961,3.9602,3.9594,3.96,3.9673,3.9673,3.9694,3.9695,3.9695]}]]